Stations météo

réclame
Mon MeteoGroup
Görlitz, Allemagne (10499): Température de l'air & dewpoint: 22.05.2018 11:00:00 - 28.05.2018 11:00:00 (CEST)Görlitz, Allemagne (10499): Température de l'air 5cm & Température de l'air -5cm: 22.05.2018 11:00:00 - 28.05.2018 11:00:00 (CEST)Görlitz, Allemagne (10499): Température de l'air -20cm & Température de l'air -100cm: 22.05.2018 11:00:00 - 28.05.2018 11:00:00 (CEST)Görlitz, Allemagne (10499): Vitesse du vent & gusts: 22.05.2018 11:00:00 - 28.05.2018 11:00:00 (CEST)Görlitz, Allemagne (10499): Direction du vent: 22.05.2018 11:00:00 - 28.05.2018 11:00:00 (CEST)Görlitz, Allemagne (10499): reduced air pressure: 22.05.2018 11:00:00 - 28.05.2018 11:00:00 (CEST)Görlitz, Allemagne (10499): visibility: 22.05.2018 11:00:00 - 28.05.2018 11:00:00 (CEST)Görlitz, Allemagne (10499): Ensoleillement: 22.05.2018 11:00:00 - 28.05.2018 11:00:00 (CEST)Görlitz, Allemagne (10499): Quantités de précipitations: 22.05.2018 11:00:00 - 28.05.2018 11:00:00 (CEST)
Date & Time tt [°C] td [°C] tt 5cm [°C] tt -5cm [°C] tt -20cm [°C] tt -100cm [°C] ff [km/h] ff [knt] fx [km/h] fx [knt] dd ppp [hPa] vv [km] sd [min] rr [mm]
28.05.2018 11:00:00 26,2 16,1 31,6 21,8 19,8 15,1 13 7 24 13 E 1019,8 30 60 0,0
28.05.2018 10:00:00 24,9 16,4 28,8 20,8 19,7 15,1 10 6 19 11 E 1020,2 28 60 0,0
28.05.2018 09:00:00 22,4 15,6 25,4 20,0 19,7 15,1 10 6 17 9 E 1020,5 28 60 0,0
28.05.2018 08:00:00 20,3 14,3 22,6 19,5 19,9 15,1 9 5 13 7 E 1020,5 27 60 0,0
28.05.2018 07:00:00 18,0 13,3 19,5 19,3 20,1 15,1 0 0 5 3 N 1020,4 25 60 0,0
28.05.2018 06:00:00 15,5 12,7 14,6 19,5 20,3 15,1 4 2 6 4 ENE 1020,5 25 6 0,0
28.05.2018 05:00:00 14,5 12,7 12,2 19,9 20,5 15,0 0 0 5 3 N 1020,2 20 0 0,0
28.05.2018 04:00:00 15,6 12,4 13,1 20,3 20,7 15,0 2 1 8 4 ESE 1020,2 18 0 0,0
28.05.2018 03:00:00 18,3 12,8 15,3 20,7 21,0 15,0 4 2 10 5 E 1020,0 20 0 0,0
28.05.2018 02:00:00 19,1 12,7 17,5 21,0 21,2 15,0 7 4 13 7 E 1020,1 20 0 0,0
28.05.2018 01:00:00 18,9 13,3 16,0 21,5 21,4 15,0 5 3 16 8 E 1020,3 20 0 0,0
28.05.2018 00:00:00 20,0 13,0 18,6 22,0 21,6 15,0 8 4 16 9 E 1020,3 20 0 0,0
27.05.2018 23:00:00 19,7 13,1 17,7 22,6 21,7 15,0 9 5 12 7 ENE 1020,1 30 0 0,0
27.05.2018 22:00:00 20,1 14,0 18,3 23,3 21,8 15,0 9 5 12 7 NE 1019,9 40 0 0,0
27.05.2018 21:00:00 21,9 14,4 20,7 23,9 21,9 15,0 7 4 13 7 NE 1019,4 45 0 0,0
27.05.2018 20:00:00 22,5 15,6 21,8 24,6 21,8 15,0 11 6 22 12 NNE 1019,1 35 5 0,0
27.05.2018 19:00:00 25,3 13,5 25,7 25,1 21,7 15,0 14 8 24 13 ENE 1018,7 30 60 0,0
27.05.2018 18:00:00 26,0 12,9 27,0 25,2 21,5 15,0 15 8 28 15 E 1018,6 25 56 0,0
27.05.2018 17:00:00 26,6 13,5 29,5 25,1 21,2 14,9 14 8 27 15 E 1018,8 28 36 0,0
27.05.2018 16:00:00 26,7 13,9 30,9 24,8 20,9 14,9 16 9 28 15 E 1018,8 40 60 0,0
27.05.2018 15:00:00 25,7 14,2 28,7 24,7 20,6 14,9 17 9 25 14 E 1019,4 40 3 0,0
27.05.2018 14:00:00 25,9 12,4 27,9 24,7 20,2 14,9 10 6 25 13 ESE 1019,7 35 18 0,0
27.05.2018 13:00:00 27,2 11,5 34,1 23,9 19,8 14,9 11 6 21 12 ESE 1020,0 35 56 0,0
27.05.2018 12:00:00 26,2 12,0 32,1 22,7 19,5 14,9 9 5 21 11 ENE 1020,4 30 60 0,0
27.05.2018 11:00:00 25,1 12,7 30,9 21,4 19,3 14,8 8 4 19 11 ENE 1020,7 30 60 0,0
27.05.2018 10:00:00 23,8 13,3 28,6 20,3 19,2 14,8 6 4 10 5 NE 1020,7 28 60 0,0
27.05.2018 09:00:00 22,2 13,2 26,4 19,3 19,2 14,7 5 3 8 4 NE 1020,7 28 60 0,0
27.05.2018 08:00:00 18,8 12,6 21,2 18,7 19,4 14,7 5 3 9 5 E 1020,7 40 60 0,0
27.05.2018 07:00:00 15,6 12,6 17,3 18,5 19,6 14,7 5 3 8 5 SE 1020,7 35 60 0,0
27.05.2018 06:00:00 13,2 12,0 12,7 18,8 19,9 14,7 5 3 11 6 SSE 1020,7 50 24 0,0
27.05.2018 05:00:00 13,3 12,5 11,7 19,2 20,2 14,7 6 3 9 5 ESE 1020,8 30 0 0,0
27.05.2018 04:00:00 14,0 12,8 11,9 19,7 20,4 14,7 5 3 8 5 SE 1021,1 18 0 0,0
27.05.2018 03:00:00 14,0 13,3 11,4 20,2 20,7 14,7 6 4 8 5 SSE 1021,3 15 0 0,0
27.05.2018 02:00:00 14,1 12,8 11,6 20,7 21,0 14,6 7 4 9 5 SSE 1021,7 20 0 0,0
27.05.2018 01:00:00 16,1 12,5 11,7 21,3 21,2 14,6 3 1 7 4 S 1021,4 25 0 0,0
27.05.2018 00:00:00 18,0 12,5 14,4 22,1 21,5 14,6 6 4 10 5 SE 1021,3 30 0 0,0
26.05.2018 23:00:00 18,3 12,4 14,5 22,8 21,6 14,6 4 2 14 8 SE 1021,2 30 0 0,0
26.05.2018 22:00:00 20,1 12,5 17,8 23,7 21,8 14,7 9 5 14 7 ESE 1021,1 35 0 0,0
26.05.2018 21:00:00 22,1 11,8 20,4 24,6 21,8 14,7 6 3 9 5 ENE 1020,4 50 7 0,0
26.05.2018 20:00:00 24,5 8,2 22,5 25,4 21,6 14,7 5 3 10 5 S 1020,1 50 57 0,0
26.05.2018 19:00:00 25,9 10,1 27,1 25,8 21,4 14,7 4 2 9 5 SSW 1019,8 50 60 0,0
26.05.2018 18:00:00 25,6 7,4 28,9 25,9 21,0 14,6 6 3 9 5 ESE 1019,8 50 36 0,0
26.05.2018 17:00:00 25,0 9,5 28,6 26,1 20,6 14,6 5 3 17 9 NNW 1020,1 55 47 0,0
26.05.2018 16:00:00 26,1 8,3 31,4 25,5 20,1 14,6 5 3 24 13 S 1020,4 50 60 0,0
26.05.2018 15:00:00 26,0 10,3 31,3 24,7 19,6 14,6 7 4 21 11 E 1020,7 55 55 0,0
26.05.2018 14:00:00 24,3 9,6 27,2 23,9 19,1 14,6 10 5 22 12 NNE 1021,3 50 57 0,0
26.05.2018 13:00:00 25,2 9,8 32,0 22,8 18,7 14,5 8 4 21 12 NE 1021,2 50 60 0,0
26.05.2018 12:00:00 23,7 10,5 30,1 21,5 18,4 14,5 10 6 18 10 NE 1021,7 50 60 0,0
26.05.2018 11:00:00 23,0 12,6 28,1 20,2 18,2 14,5 9 5 14 8 NE 1021,8 45 60 0,0
26.05.2018 10:00:00 21,6 12,8 26,7 19,0 18,1 14,5 6 3 12 6 NE 1021,9 45 60 0,0
26.05.2018 09:00:00 20,2 11,6 23,7 18,0 18,1 14,5 2 1 8 4 E 1021,9 50 60 0,0
26.05.2018 08:00:00 16,4 11,8 19,4 17,4 18,3 14,5 3 1 5 3 SSW 1022,0 55 60 0,0
26.05.2018 07:00:00 12,7 9,7 16,4 17,2 18,5 14,5 2 1 8 5 WSW 1022,2 35 60 0,0
26.05.2018 06:00:00 11,0 10,2 10,7 17,5 18,8 14,4 5 3 9 5 SSE 1022,2 35 18 0,0
26.05.2018 05:00:00 11,2 10,4 9,9 17,9 19,1 14,4 6 4 9 5 E 1021,9 35 0 0,0
26.05.2018 04:00:00 11,4 10,5 8,9 18,4 19,3 14,4 3 1 7 4 SW 1021,6 30 0 0,0
26.05.2018 03:00:00 10,6 9,7 8,9 18,9 19,6 14,4 4 2 11 6 SSW 1021,7 25 0 0,0
26.05.2018 02:00:00 14,0 10,8 12,5 19,5 19,8 14,4 7 4 9 5 ENE 1021,2 25 0 0,0
26.05.2018 01:00:00 14,6 10,9 12,3 20,1 20,0 14,4 4 2 11 6 NNE 1021,2 30 0 0,0
26.05.2018 00:00:00 16,4 11,0 15,0 20,8 20,2 14,4 8 5 19 10 E 1020,8 25 0 0,0
25.05.2018 23:00:00 18,0 10,6 17,1 21,3 20,3 14,4 9 5 19 10 E 1020,4 30 0 0,0
25.05.2018 22:00:00 18,8 10,1 17,7 22,1 20,4 14,4 16 9 31 17 E 1020,3 35 0 0,0
25.05.2018 21:00:00 20,0 10,5 19,0 22,9 20,4 14,4 20 11 35 19 ENE 1019,6 45 15 0,0
25.05.2018 20:00:00 22,1 10,4 21,5 23,6 20,2 14,4 7 4 24 13 E 1018,6 45 55 0,0
25.05.2018 19:00:00 22,9 9,9 23,5 23,9 20,0 14,4 10 5 18 10 E 1018,4 50 58 0,0
25.05.2018 18:00:00 23,0 11,4 25,0 23,7 19,7 14,4 10 5 30 16 ENE 1018,3 42 49 0,0
25.05.2018 17:00:00 24,0 10,7 27,0 23,6 19,4 14,4 10 5 24 13 E 1018,4 47 45 0,0
25.05.2018 16:00:00 24,1 9,7 26,8 23,4 19,1 14,4 10 5 27 15 ENE 1018,3 55 57 0,0
25.05.2018 15:00:00 23,8 9,4 27,1 23,0 18,7 14,3 16 8 32 17 ENE 1018,5 55 60 0,0
25.05.2018 14:00:00 24,4 10,8 29,8 22,2 18,3 14,3 19 10 34 18 ESE 1018,9 55 57 0,0
25.05.2018 13:00:00 23,2 10,7 28,2 21,3 17,9 14,3 16 9 38 20 ENE 1019,6 50 57 0,0
25.05.2018 12:00:00 22,6 10,6 25,5 20,3 17,7 14,3 22 12 36 20 E 1020,1 50 56 0,0
25.05.2018 11:00:00 22,0 11,6 26,4 19,2 17,5 14,3 18 10 32 17 ENE 1020,0 48 60 0,0
25.05.2018 10:00:00 20,5 11,5 24,6 18,1 17,4 14,3 13 7 23 12 ENE 1020,2 47 60 0,0
25.05.2018 09:00:00 18,6 11,9 21,9 17,2 17,4 14,3 12 6 20 11 NE 1020,4 47 60 0,0
25.05.2018 08:00:00 16,4 10,9 18,5 16,7 17,6 14,3 10 5 18 10 ENE 1020,4 45 60 0,0
25.05.2018 07:00:00 14,2 10,7 15,7 16,5 17,8 14,3 6 3 11 6 ENE 1020,7 38 60 0,0
25.05.2018 06:00:00 12,6 10,1 12,0 16,7 18,0 14,2 8 4 20 11 E 1020,7 25 31 0,0
25.05.2018 05:00:00 11,5 10,0 10,3 17,1 18,3 14,2 13 7 17 9 NE 1020,6 26 0 0,0
25.05.2018 04:00:00 12,6 10,1 10,9 17,5 18,5 14,2 10 5 13 7 NE 1020,6 27 0 0,0
25.05.2018 03:00:00 13,0 10,4 11,2 17,9 18,7 14,2 7 4 17 9 ENE 1020,8 27 0 0,0
25.05.2018 02:00:00 12,8 10,3 10,7 18,4 19,0 14,2 10 6 13 7 ENE 1020,9 27 0 0,0
25.05.2018 01:00:00 13,6 10,4 11,8 19,0 19,2 14,2 10 5 20 11 NE 1021,0 30 0 0,0
25.05.2018 00:00:00 16,5 10,2 15,1 19,5 19,3 14,2 13 7 21 11 E 1020,7 35 0 0,0
24.05.2018 23:00:00 16,6 10,3 15,1 20,1 19,5 14,2 11 6 20 11 ENE 1020,7 35 0 0,0
24.05.2018 22:00:00 17,7 10,6 16,4 20,7 19,6 14,2 11 6 22 12 ENE 1020,6 35 0 0,0
24.05.2018 21:00:00 19,0 10,9 17,8 21,4 19,6 14,2 11 6 24 13 ENE 1020,3 40 0 0,0
24.05.2018 20:00:00 20,6 11,1 19,9 22,0 19,6 14,2 13 7 32 17 ENE 1019,9 40 2 0,0
24.05.2018 19:00:00 21,6 10,9 21,8 22,5 19,4 14,2 16 9 35 19 E 1019,7 35 56 0,0
24.05.2018 18:00:00 22,3 11,2 23,5 22,8 19,2 14,2 18 10 38 21 ENE 1019,4 50 59 0,0
24.05.2018 17:00:00 23,1 11,4 25,8 22,8 18,9 14,2 21 11 42 23 ENE 1019,8 45 59 0,0
24.05.2018 16:00:00 23,2 12,1 26,8 22,4 18,6 14,2 21 11 38 21 E 1020,0 45 60 0,0
24.05.2018 15:00:00 22,7 11,6 26,4 21,7 18,3 14,1 22 12 44 24 E 1020,5 45 60 0,0
24.05.2018 14:00:00 22,4 12,0 26,8 21,0 18,0 14,1 24 13 43 23 ENE 1021,3 40 60 0,0
24.05.2018 13:00:00 20,8 11,4 23,7 20,5 17,8 14,1 25 13 46 25 E 1021,9 40 56 0,0
24.05.2018 12:00:00 21,2 11,0 25,3 19,7 17,5 14,1 26 14 48 26 E 1022,2 40 60 0,0
24.05.2018 11:00:00 20,8 11,5 25,3 18,8 17,4 14,1 24 13 39 21 E 1022,1 35 60 0,0
24.05.2018 10:00:00 18,1 11,0 20,4 18,0 17,4 14,1 19 10 32 18 ENE 1022,3 30 60 0,0
24.05.2018 09:00:00 17,1 11,0 19,2 17,4 17,5 14,1 14 8 31 17 ENE 1022,4 30 57 0,0
24.05.2018 08:00:00 15,6 10,7 16,8 17,1 17,6 14,1 16 9 27 14 ENE 1022,4 30 32 0,0
24.05.2018 07:00:00 14,3 10,3 14,4 17,1 17,7 14,1 16 9 24 13 ENE 1022,3 30 0 0,0
24.05.2018 06:00:00 14,2 9,8 13,9 17,3 17,9 14,1 16 9 24 13 ENE 1022,3 25 6 0,0
24.05.2018 05:00:00 14,6 9,7 13,9 17,6 18,1 14,0 14 8 23 12 ENE 1021,9 26 0 0,0
24.05.2018 04:00:00 15,6 9,5 15,1 17,9 18,2 14,0 16 8 26 14 ENE 1022,0 27 0 0,0
24.05.2018 03:00:00 15,9 10,1 15,3 18,1 18,4 14,0 14 8 23 13 ENE 1022,2 28 0 0,0
24.05.2018 02:00:00 16,6 10,5 15,6 18,5 18,6 14,0 12 6 23 13 ENE 1022,2 24 0 0,0
24.05.2018 01:00:00 17,2 10,5 15,7 18,9 18,7 14,0 11 6 29 15 E 1021,8 26 0 0,0
24.05.2018 00:00:00 18,1 10,4 17,3 19,3 18,8 14,0 18 10 31 17 ENE 1021,3 22 0 0,0
23.05.2018 23:00:00 18,8 10,9 17,9 19,7 19,0 14,0 16 9 27 14 ENE 1021,0 22 0 0,0
23.05.2018 22:00:00 18,7 12,1 17,8 20,2 19,0 14,0 12 7 21 11 ENE 1021,0 22 0 0,0
23.05.2018 21:00:00 20,3 13,2 19,4 20,8 19,0 14,0 10 5 19 11 ENE 1020,4 22 0 0,0
23.05.2018 20:00:00 21,1 14,6 20,6 21,3 18,9 14,0 11 6 26 14 ENE 1019,7 25 0 0,0
23.05.2018 19:00:00 21,7 14,3 21,7 21,7 18,7 14,0 15 8 36 20 ENE 1018,9 22 21 0,0
23.05.2018 18:00:00 22,7 14,0 24,9 21,6 18,5 14,0 18 10 31 17 ENE 1019,1 20 52 0,0
23.05.2018 17:00:00 22,8 14,6 24,6 21,3 18,3 14,0 22 12 34 19 E 1018,9 23 34 0,0
23.05.2018 16:00:00 22,6 15,4 24,1 21,0 18,1 13,9 17 9 30 16 ENE 1019,0 25 23 0,0
23.05.2018 15:00:00 23,1 14,6 26,2 20,3 17,9 13,9 15 8 31 17 ENE 1019,3 20 22 0,0
23.05.2018 14:00:00 22,1 14,1 25,5 19,6 17,8 13,9 14 8 25 14 ENE 1019,6 35 5 0,0
23.05.2018 13:00:00 20,5 12,9 21,4 19,5 17,6 13,9 13 7 34 18 E 1019,9 30 0 0,0
23.05.2018 12:00:00 20,7 12,2 21,9 19,2 17,5 13,9 20 11 34 19 E 1019,7 21 20 0,0
23.05.2018 11:00:00 20,4 12,2 23,3 18,6 17,4 13,9 16 9 32 18 ENE 1019,5 30 17 0,0
23.05.2018 10:00:00 19,4 12,2 20,8 18,1 17,4 13,9 14 8 32 18 ENE 1019,4 30 41 0,0
23.05.2018 09:00:00 18,2 12,0 20,5 17,4 17,4 13,8 13 7 24 13 ENE 1019,1 30 46 0,0
23.05.2018 08:00:00 17,4 11,7 18,8 17,1 17,6 13,8 14 7 22 12 E 1018,5 30 21 0,0
23.05.2018 07:00:00 15,1 11,5 15,2 17,1 17,7 13,8 14 8 30 16 E 1018,1 30 0 0,0
23.05.2018 06:00:00 15,5 11,6 15,2 17,2 17,9 13,8 15 8 26 14 E 1017,5 42 0 0,0
23.05.2018 05:00:00 14,1 11,5 13,7 17,4 18,2 13,8 11 6 19 11 E 1017,2 30 0 0,0
23.05.2018 04:00:00 13,4 9,7 12,6 17,7 18,4 13,8 15 8 18 10 NE 1017,1 25 0 0,0
23.05.2018 03:00:00 15,3 9,5 13,9 18,1 18,6 13,8 9 5 15 8 E 1016,7 45 0 0,0
23.05.2018 02:00:00 16,0 9,0 14,4 18,5 18,9 13,8 10 5 22 12 ENE 1016,6 45 0 0,0
23.05.2018 01:00:00 15,6 9,7 14,1 19,1 19,1 13,8 9 5 14 7 E 1016,6 45 0 0,0
23.05.2018 00:00:00 14,7 10,4 13,2 19,7 19,3 13,8 8 4 13 7 NE 1016,5 45 0 0,0
22.05.2018 23:00:00 15,2 10,7 13,8 20,4 19,5 13,8 9 5 20 11 ENE 1016,4 45 0 0,0
22.05.2018 22:00:00 16,0 10,8 14,2 21,3 19,6 13,8 11 6 16 9 ENE 1015,7 45 0 0,0
22.05.2018 21:00:00 19,2 10,7 17,5 22,3 19,6 13,8 11 6 20 11 ESE 1014,9 50 23 0,0
22.05.2018 20:00:00 21,0 9,9 20,2 23,1 19,4 13,8 14 8 21 11 E 1014,3 50 60 0,0
22.05.2018 19:00:00 22,0 9,9 22,9 23,7 19,2 13,8 10 6 17 9 ENE 1013,9 60 60 0,0
22.05.2018 18:00:00 22,9 9,3 25,2 23,9 18,8 13,8 9 5 19 11 NNE 1013,7 60 60 0,0
22.05.2018 17:00:00 22,9 8,1 26,6 23,7 18,3 13,7 9 5 16 9 E 1013,9 55 60 0,0
22.05.2018 16:00:00 23,2 8,8 28,3 23,0 17,8 13,7 8 4 18 10 E 1013,9 60 60 0,0
22.05.2018 15:00:00 23,1 8,6 28,0 22,3 17,3 13,7 11 6 18 10 NNE 1014,2 60 48 0,0
22.05.2018 14:00:00 22,6 8,4 27,5 21,4 16,9 13,7 9 5 22 12 NNE 1014,4 60 60 0,0
22.05.2018 13:00:00 21,8 7,8 27,8 20,1 16,4 13,7 10 5 23 12 NE 1014,6 60 60 0,0
22.05.2018 12:00:00 21,2 8,2 26,6 18,8 16,1 13,7 11 6 28 15 ENE 1014,8 60 60 0,0
22.05.2018 11:00:00 20,1 8,2 24,3 17,6 15,8 13,7 13 7 24 13 ENE 1015,3 60 60 0,0

tt = Température de l'air
td = dewpoint
tt 5cm = Température de l'air 5cm
tt -5cm = Température de l'air -5cm
tt -20cm = Température de l'air -20cm
tt -100cm = Température de l'air -100cm
ff = Vitesse du vent
fx = gusts
dd = Direction du vent
ppp = reduced air pressure
vv = visibility
sd = Ensoleillement
rr = Quantités de précipitations

stations d'obs. à proximité